Weather History for Needles, CA

Change the Weather History Date:

Saturday, May 31, 2014

  Actual Average Record
Temperature  
Mean Temperature 92 °F -  
Max Temperature 108 °F 98 °F 111 °F (2001)
Min Temperature 79 °F 71 °F 58 °F (1988)
Cooling Degree Days 28    
Growing Degree Days 42 (Base 50)    
Moisture  
Dew Point 14 °F    
Average Humidity 6    
Maximum Humidity 12    
Minimum Humidity 4    
Precipitation  
Precipitation 0.00 in - - ()
Sea Level Pressure  
Sea Level Pressure 29.63 in    
Wind  
Wind Speed 9 mph (SW)    
Max Wind Speed 22 mph    
Max Gust Speed 34 mph    
Visibility 10 miles    
Events      
Averages and records for this station are not official NWS values.
T = Trace of Precipitation, MM = Missing Value Source: NWS Daily Summary

Daily Weather History Graph

Daily Weather History Graph

Search for Another Location

Airport:

Trip Planner

Search our weather history database for the weather conditions in past years. The results will help you decide how hot, cold, wet, or windy it might be!

Date:

Astronomy

May. 31, 2014 Rise Set
Actual Time 5:26 AM PDT 7:46 PM PDT
Civil Twilight 4:57 AM PDT 8:15 PM PDT
Nautical Twilight 4:22 AM PDT 8:50 PM PDT
Astronomical Twilight 3:43 AM PDT 9:29 PM PDT
Moon 8:04 AM PDT (5/31) 10:10 PM PDT (5/31)
Length of Visible Light 15h 17m
Length of Day
14h 19m
Waxing Crescent, 9% of the Moon is Illuminated
May 31
Waxing Crescent
Jun 5
First Quarter
Jun 12
Full
Jun 19
Last Quarter
Jun 27
New

Hourly Weather History & Observations

Time (PDT) Temp. Dew Point Humidity Pressure Visibility Wind Dir Wind Speed Gust Speed Precip Events Conditions
12:56 AM 90.0 °F 17.1 °F 7% 29.63 in 10.0 mi WSW 10.4 mph - N/A   Clear
1:56 AM 89.1 °F 14.0 °F 6% 29.63 in 10.0 mi ENE 6.9 mph - N/A   Clear
2:56 AM 86.0 °F 14.0 °F 7% 29.64 in 10.0 mi Calm Calm - N/A   Clear
3:56 AM 84.0 °F 15.1 °F 8% 29.64 in 10.0 mi South 3.5 mph - N/A   Clear
4:56 AM 81.0 °F 14.0 °F 8% 29.65 in 10.0 mi WSW 9.2 mph - N/A   Clear
5:56 AM 79.0 °F 15.1 °F 9% 29.66 in 10.0 mi SSW 6.9 mph - N/A   Clear
6:56 AM 86.0 °F 24.1 °F 10% 29.67 in 10.0 mi ESE 3.5 mph - N/A   Clear
7:56 AM 86.0 °F 27.0 °F 12% 29.69 in 10.0 mi East 3.5 mph - N/A   Clear
8:56 AM 91.0 °F 26.1 °F 10% 29.69 in 10.0 mi Calm Calm - N/A   Clear
9:56 AM 97.0 °F 21.9 °F 7% 29.67 in 10.0 mi ENE 4.6 mph - N/A   Clear
10:56 AM 100.0 °F 27.0 °F 8% 29.66 in 10.0 mi ESE 8.1 mph - N/A   Clear
11:56 AM 102.9 °F 14.0 °F 4% 29.65 in 10.0 mi SSW 8.1 mph 21.9 mph N/A   Clear
12:56 PM 106.0 °F 12.0 °F 4% 29.63 in 10.0 mi WSW 13.8 mph 29.9 mph N/A   Clear
1:56 PM 106.0 °F 10.0 °F 4% 29.62 in 10.0 mi WSW 21.9 mph 32.2 mph N/A   Clear
2:56 PM 106.0 °F 12.0 °F 4% 29.61 in 10.0 mi SW 20.7 mph 34.5 mph N/A   Clear
3:30 PM 106.0 °F 10.9 °F 4% 29.70 in 10.0 mi West 17.3 mph 24.2 mph N/A   Clear
3:56 PM 106.0 °F 10.9 °F 4% 29.58 in 10.0 mi WNW 13.8 mph 25.3 mph N/A   Clear
4:56 PM 106.0 °F 10.0 °F 4% 29.56 in 10.0 mi West 12.7 mph 26.5 mph N/A   Clear
6:56 PM 104.0 °F 10.0 °F 4% 29.55 in 10.0 mi West 10.4 mph - N/A   Clear
7:56 PM 100.0 °F 3.0 °F 4% 29.55 in 10.0 mi SW 10.4 mph - N/A   Clear
8:56 PM 98.1 °F 3.9 °F 4% 29.57 in 10.0 mi WSW 16.1 mph - N/A   Clear
9:56 PM 93.9 °F 3.0 °F 4% 29.59 in 10.0 mi WSW 15.0 mph - N/A   Clear
11:56 PM 88.0 °F 12.9 °F 6% 29.62 in 10.0 mi Calm Calm - N/A   Clear